Location: Unspecified
(0.0000°N, 0.0000°E)
Time: 06:48:33
(UTC+00:00)

Courier 1B - Pass Details

Date: 01 October 2023
Orbit: 962 x 1208 km, 28.3° (Epoch: 06 December)

Event Time Altitude Azimuth Distance (km) Brightness Sun altitude
Rises 04:21:28 0° 209° (SSW) 3,637 - -22.1°
Exits shadow 04:22:09 - 206° (SSW) 3,465 10.2 -21.9°
Reaches altitude 10° 04:26:09 10° 179° (S) 2,703 9.9 -20.9°
Maximum altitude 04:28:31 12° 157° (SSE) 2,568 10.0 -20.3°
Drops below altitude 10° 04:30:55 10° 135° (SE) 2,733 10.5 -19.7°
Sets 04:35:42 0° 106° (ESE) 3,728 12.1 -18.5°
